Regional Weather Roundup
Issued by NWS

Home | Current Version | Previous Version | Graphics & Text | Print | Product List | Glossary Off
Versions: 1 2 3 4 5 6 7 8 9 10 11 12 13 14 15 16 17 18 19 20 21 22 23 24 25 26 27 28 29 30 31 32 33 34 35 36 37 38 39 40 41 42 43 44 45 46 47 48 49 50

112
ASUS43 KMKX 271521
RWRWI

WISCONSIN REGIONAL WEATHER ROUNDUP
NATIONAL WEATHER SERVICE MILWAUKEE/SULLIVAN WI
1000 AM CDT THU APR 27 2017

NOTE: "FAIR" INDICATES FEW OR NO CLOUDS BELOW 12,000 FEET WITH NO
SIGNIFICANT WEATHER AND/OR OBSTRUCTIONS TO VISIBILITY.

WIZ001-002-006>008-014>016-023>028-271600-
NORTHWEST WISCONSIN

CITY           SKY/WX    TMP DP  RH WIND       PRES   REMARKS
SUPERIOR ARPT  CLOUDY    27  21  79 CALM      29.54S
ASHLAND        CLOUDY    27  24  89 NW10      29.48F WCI  17
HAYWARD        CLOUDY    27  22  81 NW5       29.48  WCI  22
SIREN          CLOUDY    28  24  83 NW10      29.53R WCI  19
CUMBERLAND     CLOUDY    28  27  93 NW14      29.50R WCI  17
RICE LAKE      CLOUDY    30  27  90 NW7       29.51  WCI  23
CHETEK         MIX PCPN  30  29  94 NW8       29.48S WCI  23
LADYSMITH      CLOUDY    31  26  84 NW13      29.46  WCI  21
EAU CLAIRE     CLOUDY    32  29  88 NW10      29.49  WCI  24
MENOMONIE      CLOUDY    34  28  79 W10       29.51  WCI  26
NEW RICHMOND   CLOUDY    31  27  84 NW12G17   29.53R WCI  21
OSCEOLA        CLOUDY    30  26  84 NW9       29.57R WCI  22
$$

WIZ003>005-009-010-017-018-271600-
NORTH CENTRAL WISCONSIN

CITY           SKY/WX    TMP DP  RH WIND       PRES   REMARKS
MANITOWISH WTR NOT AVBL
ARBOR VITAE    LGT SNOW  32  30  93 NW13      29.35F VSB 1   WCI  22
WOODRUFF       LGT SNOW  32  30  93 NW13      29.35F VSB 1   WCI  22
RHINELANDER    MIX PCPN  31  30  96 VRB5      29.36R FOG     WCI  26
EAGLE RIVER    LGT SNOW  29  28  95 N8        29.35S WCI  22
LAND O LAKES   LGT SNOW  29  26  92 N12       29.35  WCI  19
PHILLIPS       LGT SNOW  27  25  94 NW12      29.40  WCI  17
TOMAHAWK       LGT SNOW  29  28  93 NW8       29.38S WCI  21
MEDFORD        LGT SNOW  28  26  93 NW9       29.39R WCI  19
MERRILL        LGT SNOW  32  31  99 N6        29.38  VSB 1   WCI  26
$$

WIZ029-030-035-036-043>047-271600-
CENTRAL WISCONSIN

CITY           SKY/WX    TMP DP  RH WIND       PRES   REMARKS
WAUSAU         MIX PCPN  32  31  96 NW12G18   29.37  FOG     WCI  23
MOSINEE        LGTSLEET  32  32 100 NW12      29.40  VSB 1   WCI  23
MARSHFIELD     LGT SNOW  30  27  88 NW15G22   29.41R VSB 3/4 WCI  19
STEVENS POINT  HVY RAIN  32  32 100 W6        29.39R WCI  26
WAUPACA        LGT RAIN  37  34  89 W12       29.39  WCI  29
WAUTOMA        LGT SNOW  34  34 100 W8        29.43  FOG     WCI  27
WISC RAPIDS    SNOW      32  32 100 NW14      29.43R VSB 1/2 WCI  22
CAMP DOUGLAS   LGT SNOW  32  32 100 W15G21    29.46R WCI  22
$$

WIZ011>013-019>022-031-037>040-048>050-271600-
NORTHEAST WISCONSIN

CITY           SKY/WX    TMP DP  RH WIND       PRES   REMARKS
ANTIGO         MIX PCPN  32  32 100 NW8       29.34R WCI  25
SHAWANO        RAIN      39  37  89 NW6       29.34
OCONTO         NOT AVBL
STURGEON BAY   LGT RAIN  38  37  97 N15       29.28  FOG     WCI  29
GREEN BAY      LGT RAIN  42  40  92 W12       29.34R
MANITOWOC      CLOUDY    43  40  89 W15       29.31
APPLETON       LGT RAIN  37  37 100 W17       29.34  FOG     WCI  28
CLINTONVILLE   LGT RAIN  36  36 100 NW12      29.36  WCI  27
OSHKOSH        LGT RAIN  39  36  89 W13G21    29.37R WCI  31
$$

WIZ032>034-041-042-053>061-271600-
SOUTHWEST WISCONSIN

CITY           SKY/WX    TMP DP  RH WIND       PRES   REMARKS
LA CROSSE      CLOUDY    39  32  76 NW10      29.51  WCI  32
SPARTA         CLOUDY    33  32  96 W7        29.49  WCI  27
VIROQUA        CLOUDY    33  32  94 NW12      29.48R WCI  25
BOSCOBEL       CLOUDY    39  35  86 W7        29.54R WCI  34
PRAIRIE DU CHI CLOUDY    37  37  97 W12       29.54R WCI  30
PLATTEVILLE    CLOUDY    38  38 100 W18       29.53R WCI  28
$$

WIZ056-057-062-063-064-067-068-271600-
SOUTH CENTRAL WISCONSIN

CITY           SKY/WX    TMP DP  RH WIND       PRES   REMARKS
REEDSBURG      NOT AVBL
BARABOO/DELLS  LGT SNOW  33  32  98 W8        29.46R VSB 1   WCI  25
LONE ROCK      LGT RAIN  36  34  92 W10       29.51R FOG     WCI  28
MINERAL POINT  LGT RAIN  36  36 100 W14       29.50R WCI  27
MADISON        LGT SNOW  36  33  89 VRB6G16   29.47  FOG     WCI  31
MIDDLETON      CLOUDY    37  36  94 W15G21    29.49  WCI  28
WATERTOWN      DRIZZLE   39  39 100 W16G25    29.45R WCI  30
MONROE         LGT RAIN  34  34 100 W15       29.51R WCI  24
JANESVILLE     DRIZZLE   39  39 100 W15G25    29.50  WCI  31
$$

WIZ051-052-058>065-066-070>072-271600-
SOUTHEAST WISCONSIN

CITY           SKY/WX    TMP DP  RH WIND       PRES   REMARKS
MILWAUKEE      LGT RAIN  47  42  83 W20G32    29.42R
WAUKESHA       CLOUDY    41  39  93 W17G29    29.43
MILWAUKEE/TIMM CLOUDY    45  39  81 W23G29    29.41
RACINE         CLOUDY    47  40  76 W17G29    29.44
KENOSHA        CLOUDY    47  41  80 W24G32    29.44R
FOND DU LAC    RAIN      40  36  86 W13G24    29.38  WCI  32
SHEBOYGAN      LGT RAIN  44  41  89 W24G31    29.34  FOG
WEST BEND      CLOUDY    41  41 100 W18G26    29.38R
JUNEAU         LGT RAIN  37  36  93 SW17G25   29.44R WCI  28
$$

LSZ147-162-271600-
LAKE SUPERIOR

STATION/POSITION TIME  TEMP    WIND        PRES    WAVE
                       AIR SEA DIR/SP/G            HT/PER
                 (UTC) (F)     (DEG/KT/KT) (MB)    (FT/S)
DEVILS ISLAND    1500   26     320/ 14/ 17  999.3F
PORT WING        1240   27     350/ 11/ 13 1000.7
SAXON HARBOR     1430   29     330/ 12/ 15  998.0F
$$

LMZ867-665-643>646-271600-
LAKE MICHIGAN

STATION/POSITION TIME  TEMP    WIND        PRES    WAVE
                       AIR SEA DIR/SP/G            HT/PER
                 (UTC) (F)     (DEG/KT/KT) (MB)    (FT/S)
CHAMBERS ISLAND  1440   37     360/ 13/ 16  992.2R
N MID LAKE BUOY  1450   40 37   60/  6/  8  992.5F   2/ 4
NORTHPORT PIER   1440   38      10/  4/  7  991.9R
SISTER BAY       1251   37      20/ 13/ 18   N/A
KEWAUNEE LAKESHO 1454   43     320/  7/ 12  991.1F
SHEBOYGAN LAKESH 1500   45     260/ 20/ 26  992.9R
PORT WASHINGTON  1440   45     270/ 11/ 21  995.3R
MILWAUKEE LAKESH 1500   45     260/ 18/ 23   N/A
S MID LAKE BUOY  1450   44 41  260/ 17/ 21  996.8R   4/ 4
KENOSHA   LAKESH 1500   47     250/ 22/ 30  997.3
$$

TC  - TEMPERATURE IN CELSIUS
VSB - VISIBILITY IN STATUTE MILES
WCI - WIND CHILL INDEX
HX  - HEAT INDEX





USA.gov is the U.S. government's official web portal to all federal, state and local government web resources and services.